Wetterdaten: Freitag, 07.08.2015
Datum Zeit Temp. A. Feuchte A. Luftdruck Regen Wind Richtung Richtung Sonnenschein ET UV Solar Taupunkt Windchill Windben Empfang
07.08.2015 00:01 19,9 C 70 % 1016,4 hPa 0,0 l/m 0,0 km/h (0 Bft) NO 48 0 min 0,000 mm 0,0 UV-I 0 W/m 14,3 C 19,9 C 0,0 km/h (0 Bft) 0,00 %
07.08.2015 00:06 19,8 C 70 % 1016,5 hPa 0,0 l/m 0,0 km/h (0 Bft) NO 51 0 min 0,000 mm 0,0 UV-I 0 W/m 14,2 C 19,8 C 0,0 km/h (0 Bft) 0,00 %
07.08.2015 00:11 19,7 C 70 % 1016,5 hPa 0,0 l/m 0,0 km/h (0 Bft) NO 45 0 min 0,000 mm 0,0 UV-I 0 W/m 14,1 C 19,7 C 0,0 km/h (0 Bft) 0,00 %
07.08.2015 00:16 19,6 C 71 % 1016,6 hPa 0,0 l/m 0,0 km/h (0 Bft) NO 44 0 min 0,000 mm 0,0 UV-I 0 W/m 14,2 C 19,6 C 0,0 km/h (0 Bft) 0,00 %
07.08.2015 00:21 19,6 C 71 % 1016,5 hPa 0,0 l/m 0,0 km/h (0 Bft) NO 50 0 min 0,000 mm 0,0 UV-I 0 W/m 14,2 C 19,6 C 0,0 km/h (0 Bft) 0,00 %
07.08.2015 00:26 19,6 C 70 % 1016,4 hPa 0,0 l/m 0,0 km/h (0 Bft) NO 53 0 min 0,000 mm 0,0 UV-I 0 W/m 14,0 C 19,6 C 0,0 km/h (0 Bft) 0,00 %
07.08.2015 00:31 19,7 C 70 % 1016,5 hPa 0,0 l/m 0,0 km/h (0 Bft) NO 46 0 min 0,000 mm 0,0 UV-I 0 W/m 14,1 C 19,7 C 0,0 km/h (0 Bft) 0,00 %
07.08.2015 00:36 19,7 C 70 % 1016,5 hPa 0,0 l/m 0,0 km/h (0 Bft) NO 44 0 min 0,000 mm 0,0 UV-I 0 W/m 14,1 C 19,7 C 0,0 km/h (0 Bft) 0,00 %
07.08.2015 00:41 19,7 C 70 % 1016,5 hPa 0,0 l/m 0,0 km/h (0 Bft) NO 35 0 min 0,000 mm 0,0 UV-I 0 W/m 14,1 C 19,7 C 0,0 km/h (0 Bft) 0,00 %
07.08.2015 00:46 19,7 C 70 % 1016,5 hPa 0,0 l/m 0,0 km/h (0 Bft) NO 38 0 min 0,000 mm 0,0 UV-I 0 W/m 14,1 C 19,7 C 0,0 km/h (0 Bft) 0,00 %
07.08.2015 00:51 19,6 C 71 % 1016,4 hPa 0,0 l/m 0,0 km/h (0 Bft) NO 38 0 min 0,000 mm 0,0 UV-I 0 W/m 14,2 C 19,6 C 0,0 km/h (0 Bft) 0,00 %
07.08.2015 00:56 19,5 C 72 % 1016,6 hPa 0,0 l/m 0,0 km/h (0 Bft) NO 38 0 min 0,000 mm 0,0 UV-I 0 W/m 14,3 C 19,5 C 0,0 km/h (0 Bft) 0,00 %
07.08.2015 01:01 19,3 C 72 % 1016,7 hPa 0,0 l/m 0,0 km/h (0 Bft) NO 38 0 min 0,000 mm 0,0 UV-I 0 W/m 14,1 C 19,3 C 0,0 km/h (0 Bft) 0,00 %
07.08.2015 01:06 19,1 C 74 % 1016,7 hPa 0,0 l/m 0,0 km/h (0 Bft) O 82 0 min 0,000 mm 0,0 UV-I 0 W/m 14,4 C 19,1 C 0,0 km/h (0 Bft) 0,00 %
07.08.2015 01:11 18,8 C 73 % 1016,7 hPa 0,0 l/m 0,0 km/h (0 Bft) NO 43 0 min 0,000 mm 0,0 UV-I 0 W/m 13,9 C 18,8 C 0,0 km/h (0 Bft) 0,00 %
07.08.2015 01:16 18,8 C 73 % 1016,6 hPa 0,0 l/m 0,0 km/h (0 Bft) NO 42 0 min 0,000 mm 0,0 UV-I 0 W/m 13,9 C 18,8 C 0,0 km/h (0 Bft) 0,00 %
07.08.2015 01:21 18,7 C 75 % 1016,5 hPa 0,0 l/m 0,0 km/h (0 Bft) NO 44 0 min 0,000 mm 0,0 UV-I 0 W/m 14,2 C 18,7 C 0,0 km/h (0 Bft) 0,00 %
07.08.2015 01:26 18,6 C 76 % 1016,6 hPa 0,0 l/m 0,0 km/h (0 Bft) NO 45 0 min 0,000 mm 0,0 UV-I 0 W/m 14,3 C 18,6 C 0,0 km/h (0 Bft) 0,00 %
07.08.2015 01:31 18,5 C 76 % 1016,7 hPa 0,0 l/m 0,0 km/h (0 Bft) NO 49 0 min 0,000 mm 0,0 UV-I 0 W/m 14,2 C 18,5 C 0,0 km/h (0 Bft) 0,00 %
07.08.2015 01:36 18,3 C 76 % 1016,6 hPa 0,0 l/m 0,0 km/h (0 Bft) O-NO 64 0 min 0,000 mm 0,0 UV-I 0 W/m 14,0 C 18,3 C 0,0 km/h (0 Bft) 0,00 %
07.08.2015 01:41 18,1 C 78 % 1016,8 hPa 0,0 l/m 0,0 km/h (0 Bft) NO 50 0 min 0,000 mm 0,0 UV-I 0 W/m 14,2 C 18,1 C 0,0 km/h (0 Bft) 0,00 %
07.08.2015 01:46 17,9 C 79 % 1016,7 hPa 0,0 l/m 0,0 km/h (0 Bft) O-NO 71 0 min 0,000 mm 0,0 UV-I 0 W/m 14,2 C 17,9 C 0,0 km/h (0 Bft) 0,00 %
07.08.2015 01:51 17,7 C 80 % 1016,9 hPa 0,0 l/m 0,0 km/h (0 Bft) O 85 0 min 0,000 mm 0,0 UV-I 0 W/m 14,2 C 17,7 C 0,0 km/h (0 Bft) 0,00 %
07.08.2015 01:56 17,6 C 79 % 1016,7 hPa 0,0 l/m 0,0 km/h (0 Bft) NO 41 0 min 0,000 mm 0,0 UV-I 0 W/m 13,9 C 17,6 C 0,0 km/h (0 Bft) 0,00 %
07.08.2015 02:01 17,6 C 79 % 1016,8 hPa 0,0 l/m 0,0 km/h (0 Bft) O-NO 64 0 min 0,000 mm 0,0 UV-I 0 W/m 13,9 C 17,6 C 0,0 km/h (0 Bft) 0,00 %
07.08.2015 02:06 17,7 C 79 % 1016,6 hPa 0,0 l/m 0,0 km/h (0 Bft) NO 36 0 min 0,000 mm 0,0 UV-I 0 W/m 14,0 C 17,7 C 0,0 km/h (0 Bft) 0,00 %
07.08.2015 02:11 17,7 C 79 % 1016,4 hPa 0,0 l/m 0,0 km/h (0 Bft) NO 51 0 min 0,000 mm 0,0 UV-I 0 W/m 14,0 C 17,7 C 0,0 km/h (0 Bft) 0,00 %
07.08.2015 02:16 17,6 C 79 % 1016,6 hPa 0,0 l/m 0,0 km/h (0 Bft) N 358 0 min 0,000 mm 0,0 UV-I 0 W/m 13,9 C 17,6 C 0,0 km/h (0 Bft) 0,00 %
07.08.2015 02:21 17,5 C 80 % 1016,8 hPa 0,0 l/m 0,0 km/h (0 Bft) O-NO 61 0 min 0,000 mm 0,0 UV-I 0 W/m 14,0 C 17,5 C 0,0 km/h (0 Bft) 0,00 %
07.08.2015 02:26 17,4 C 80 % 1016,5 hPa 0,0 l/m 0,0 km/h (0 Bft) NO 48 0 min 0,000 mm 0,0 UV-I 0 W/m 13,9 C 17,4 C 0,0 km/h (0 Bft) 0,00 %
07.08.2015 02:31 17,3 C 80 % 1016,5 hPa 0,0 l/m 0,0 km/h (0 Bft) NO 50 0 min 0,000 mm 0,0 UV-I 0 W/m 13,8 C 17,3 C 0,0 km/h (0 Bft) 0,00 %
07.08.2015 02:36 17,2 C 81 % 1016,4 hPa 0,0 l/m 0,0 km/h (0 Bft) NO 45 0 min 0,000 mm 0,0 UV-I 0 W/m 13,9 C 17,2 C 0,0 km/h (0 Bft) 0,00 %
07.08.2015 02:41 17,1 C 81 % 1016,5 hPa 0,0 l/m 0,0 km/h (0 Bft) NO 36 0 min 0,000 mm 0,0 UV-I 0 W/m 13,8 C 17,1 C 0,0 km/h (0 Bft) 0,00 %
07.08.2015 02:46 17,1 C 82 % 1016,5 hPa 0,0 l/m 0,0 km/h (0 Bft) NO 41 0 min 0,000 mm 0,0 UV-I 0 W/m 14,0 C 17,1 C 0,0 km/h (0 Bft) 0,00 %
07.08.2015 02:51 17,0 C 82 % 1016,4 hPa 0,0 l/m 0,0 km/h (0 Bft) NO 45 0 min 0,000 mm 0,0 UV-I 0 W/m 13,9 C 17,0 C 0,0 km/h (0 Bft) 0,00 %
07.08.2015 02:56 17,0 C 81 % 1016,4 hPa 0,0 l/m 0,0 km/h (0 Bft) NO 55 0 min 0,000 mm 0,0 UV-I 0 W/m 13,7 C 17,0 C 0,0 km/h (0 Bft) 0,00 %
07.08.2015 03:01 17,0 C 81 % 1016,4 hPa 0,0 l/m 0,0 km/h (0 Bft) NO 45 0 min 0,000 mm 0,0 UV-I 0 W/m 13,7 C 17,0 C 0,0 km/h (0 Bft) 0,00 %
07.08.2015 03:06 16,8 C 81 % 1016,4 hPa 0,0 l/m 0,0 km/h (0 Bft) NO 41 0 min 0,000 mm 0,0 UV-I 0 W/m 13,5 C 16,8 C 0,0 km/h (0 Bft) 0,00 %
07.08.2015 03:11 16,7 C 81 % 1016,3 hPa 0,0 l/m 0,0 km/h (0 Bft) NO 43 0 min 0,000 mm 0,0 UV-I 0 W/m 13,4 C 16,7 C 0,0 km/h (0 Bft) 0,00 %
07.08.2015 03:16 16,6 C 82 % 1016,5 hPa 0,0 l/m 0,0 km/h (0 Bft) NO 43 0 min 0,000 mm 0,0 UV-I 0 W/m 13,5 C 16,6 C 0,0 km/h (0 Bft) 0,00 %
07.08.2015 03:21 16,4 C 83 % 1016,5 hPa 0,0 l/m 0,0 km/h (0 Bft) NO 41 0 min 0,000 mm 0,0 UV-I 0 W/m 13,5 C 16,4 C 0,0 km/h (0 Bft) 0,00 %
07.08.2015 03:26 16,3 C 83 % 1016,4 hPa 0,0 l/m 0,0 km/h (0 Bft) NO 52 0 min 0,000 mm 0,0 UV-I 0 W/m 13,4 C 16,3 C 0,0 km/h (0 Bft) 0,00 %
07.08.2015 03:31 16,2 C 84 % 1016,5 hPa 0,0 l/m 0,0 km/h (0 Bft) NO 39 0 min 0,000 mm 0,0 UV-I 0 W/m 13,5 C 16,2 C 0,0 km/h (0 Bft) 0,00 %
07.08.2015 03:36 16,1 C 85 % 1016,5 hPa 0,0 l/m 0,0 km/h (0 Bft) NO 47 0 min 0,000 mm 0,0 UV-I 0 W/m 13,6 C 16,1 C 0,0 km/h (0 Bft) 0,00 %
07.08.2015 03:41 16,0 C 85 % 1016,4 hPa 0,0 l/m 0,0 km/h (0 Bft) NO 52 0 min 0,000 mm 0,0 UV-I 0 W/m 13,5 C 16,0 C 0,0 km/h (0 Bft) 0,00 %
07.08.2015 03:46 15,9 C 85 % 1016,5 hPa 0,0 l/m 0,0 km/h (0 Bft) N-NO 25 0 min 0,000 mm 0,0 UV-I 0 W/m 13,4 C 15,9 C 0,0 km/h (0 Bft) 0,00 %
07.08.2015 03:51 15,9 C 84 % 1016,5 hPa 0,0 l/m 0,0 km/h (0 Bft) NO 52 0 min 0,000 mm 0,0 UV-I 0 W/m 13,2 C 15,9 C 0,0 km/h (0 Bft) 0,00 %
07.08.2015 03:56 15,9 C 84 % 1016,4 hPa 0,0 l/m 0,0 km/h (0 Bft) NO 52 0 min 0,000 mm 0,0 UV-I 0 W/m 13,2 C 15,9 C 0,0 km/h (0 Bft) 0,00 %
07.08.2015 04:01 15,9 C 84 % 1016,6 hPa 0,0 l/m 0,0 km/h (0 Bft) NO 52 0 min 0,000 mm 0,0 UV-I 0 W/m 13,2 C 15,9 C 0,0 km/h (0 Bft) 0,00 %
07.08.2015 04:06 15,9 C 83 % 1016,3 hPa 0,0 l/m 0,0 km/h (0 Bft) NO 52 0 min 0,000 mm 0,0 UV-I 0 W/m 13,0 C 15,9 C 0,0 km/h (0 Bft) 0,00 %
07.08.2015 04:11 16,0 C 83 % 1016,3 hPa 0,0 l/m 0,0 km/h (0 Bft) NO 43 0 min 0,000 mm 0,0 UV-I 0 W/m 13,1 C 16,0 C 0,0 km/h (0 Bft) 0,00 %
07.08.2015 04:16 16,0 C 83 % 1016,3 hPa 0,0 l/m 0,0 km/h (0 Bft) NO 43 0 min 0,000 mm 0,0 UV-I 0 W/m 13,1 C 16,0 C 0,0 km/h (0 Bft) 0,00 %
07.08.2015 04:21 15,9 C 84 % 1016,3 hPa 0,0 l/m 0,0 km/h (0 Bft) NO 50 0 min 0,000 mm 0,0 UV-I 0 W/m 13,2 C 15,9 C 0,0 km/h (0 Bft) 0,00 %
07.08.2015 04:26 15,9 C 85 % 1016,4 hPa 0,0 l/m 0,0 km/h (0 Bft) NO 43 0 min 0,000 mm 0,0 UV-I 0 W/m 13,4 C 15,9 C 0,0 km/h (0 Bft) 0,00 %
07.08.2015 04:31 15,9 C 85 % 1016,4 hPa 0,0 l/m 0,0 km/h (0 Bft) NO 43 0 min 0,000 mm 0,0 UV-I 0 W/m 13,4 C 15,9 C 0,0 km/h (0 Bft) 0,00 %
07.08.2015 04:36 15,9 C 85 % 1016,4 hPa 0,0 l/m 0,0 km/h (0 Bft) NO 43 0 min 0,000 mm 0,0 UV-I 0 W/m 13,4 C 15,9 C 0,0 km/h (0 Bft) 0,00 %
07.08.2015 04:41 15,8 C 86 % 1016,4 hPa 0,0 l/m 0,0 km/h (0 Bft) NO 44 0 min 0,000 mm 0,0 UV-I 0 W/m 13,5 C 15,8 C 0,0 km/h (0 Bft) 0,00 %
07.08.2015 04:46 15,8 C 86 % 1016,6 hPa 0,0 l/m 0,0 km/h (0 Bft) NO 44 0 min 0,000 mm 0,0 UV-I 0 W/m 13,5 C 15,8 C 0,0 km/h (0 Bft) 0,00 %
07.08.2015 04:51 15,8 C 86 % 1016,5 hPa 0,0 l/m 0,0 km/h (0 Bft) NO 44 0 min 0,000 mm 0,0 UV-I 0 W/m 13,5 C 15,8 C 0,0 km/h (0 Bft) 0,00 %
07.08.2015 04:56 15,7 C 86 % 1016,4 hPa 0,0 l/m 0,0 km/h (0 Bft) NO 46 0 min 0,000 mm 0,0 UV-I 0 W/m 13,4 C 15,7 C 0,0 km/h (0 Bft) 0,00 %
07.08.2015 05:01 15,6 C 86 % 1016,4 hPa 0,0 l/m 0,0 km/h (0 Bft) NO 42 0 min 0,000 mm 0,0 UV-I 0 W/m 13,3 C 15,6 C 0,0 km/h (0 Bft) 0,00 %
07.08.2015 05:06 15,6 C 87 % 1016,5 hPa 0,0 l/m 0,0 km/h (0 Bft) N-NO 32 0 min 0,000 mm 0,0 UV-I 0 W/m 13,4 C 15,6 C 0,0 km/h (0 Bft) 0,00 %
07.08.2015 05:11 15,5 C 87 % 1016,4 hPa 0,0 l/m 0,0 km/h (0 Bft) NO 44 0 min 0,000 mm 0,0 UV-I 0 W/m 13,3 C 15,5 C 0,0 km/h (0 Bft) 0,00 %
07.08.2015 05:16 15,4 C 87 % 1016,5 hPa 0,0 l/m 0,0 km/h (0 Bft) NO 53 0 min 0,000 mm 0,0 UV-I 0 W/m 13,2 C 15,4 C 0,0 km/h (0 Bft) 0,00 %
07.08.2015 05:21 15,4 C 87 % 1016,3 hPa 0,0 l/m 0,0 km/h (0 Bft) NO 53 0 min 0,000 mm 0,0 UV-I 0 W/m 13,2 C 15,4 C 0,0 km/h (0 Bft) 0,00 %
07.08.2015 05:26 15,3 C 88 % 1016,5 hPa 0,0 l/m 0,0 km/h (0 Bft) NO 36 0 min 0,000 mm 0,0 UV-I 0 W/m 13,3 C 15,3 C 0,0 km/h (0 Bft) 0,00 %
07.08.2015 05:31 15,3 C 88 % 1016,6 hPa 0,0 l/m 0,0 km/h (0 Bft) NO 36 0 min 0,000 mm 0,0 UV-I 0 W/m 13,3 C 15,3 C 0,0 km/h (0 Bft) 0,00 %
07.08.2015 05:36 15,2 C 88 % 1016,4 hPa 0,0 l/m 0,0 km/h (0 Bft) NO 41 0 min 0,000 mm 0,0 UV-I 0 W/m 13,2 C 15,2 C 0,0 km/h (0 Bft) 0,00 %
07.08.2015 05:41 15,1 C 89 % 1016,5 hPa 0,0 l/m 0,0 km/h (0 Bft) NO 41 0 min 0,000 mm 0,0 UV-I 0 W/m 13,3 C 15,1 C 0,0 km/h (0 Bft) 0,00 %
07.08.2015 05:46 15,1 C 90 % 1016,7 hPa 0,0 l/m 0,0 km/h (0 Bft) NO 41 0 min 0,000 mm 0,0 UV-I 0 W/m 13,5 C 15,1 C 0,0 km/h (0 Bft) 0,00 %
07.08.2015 05:51 14,9 C 90 % 1016,7 hPa 0,0 l/m 0,0 km/h (0 Bft) NO 35 0 min 0,000 mm 0,0 UV-I 3 W/m 13,3 C 14,9 C 0,0 km/h (0 Bft) 0,00 %
07.08.2015 05:56 14,9 C 89 % 1016,7 hPa 0,0 l/m 0,0 km/h (0 Bft) NO 38 0 min 0,000 mm 0,0 UV-I 7 W/m 13,1 C 14,9 C 0,0 km/h (0 Bft) 0,00 %
07.08.2015 06:01 14,9 C 89 % 1016,6 hPa 0,0 l/m 0,0 km/h (0 Bft) NO 44 5 min 0,000 mm 0,0 UV-I 16 W/m 13,1 C 14,9 C 0,0 km/h (0 Bft) 0,00 %
07.08.2015 06:06 15,0 C 89 % 1016,6 hPa 0,0 l/m 0,0 km/h (0 Bft) NO 45 5 min 0,000 mm 0,0 UV-I 24 W/m 13,2 C 15,0 C 0,0 km/h (0 Bft) 0,00 %
07.08.2015 06:11 15,1 C 89 % 1016,8 hPa 0,0 l/m 0,0 km/h (0 Bft) NO 55 5 min 0,000 mm 0,0 UV-I 37 W/m 13,3 C 15,1 C 0,0 km/h (0 Bft) 0,00 %
07.08.2015 06:16 15,3 C 89 % 1016,8 hPa 0,0 l/m 0,0 km/h (0 Bft) NO 55 5 min 0,000 mm 0,0 UV-I 55 W/m 13,5 C 15,3 C 0,0 km/h (0 Bft) 0,00 %
07.08.2015 06:21 15,7 C 88 % 1016,8 hPa 0,0 l/m 0,0 km/h (0 Bft) NO 39 5 min 0,000 mm 0,0 UV-I 75 W/m 13,7 C 15,7 C 0,0 km/h (0 Bft) 0,00 %
07.08.2015 06:26 16,2 C 86 % 1016,7 hPa 0,0 l/m 0,0 km/h (0 Bft) NO 39 5 min 0,000 mm 0,0 UV-I 94 W/m 13,9 C 16,2 C 0,0 km/h (0 Bft) 0,00 %
07.08.2015 06:31 16,8 C 84 % 1016,8 hPa 0,0 l/m 0,0 km/h (0 Bft) NO 39 5 min 0,000 mm 0,0 UV-I 112 W/m 14,1 C 16,8 C 0,0 km/h (0 Bft) 0,00 %
07.08.2015 06:36 17,5 C 80 % 1016,8 hPa 0,0 l/m 0,0 km/h (0 Bft) NO 39 5 min 0,000 mm 0,0 UV-I 131 W/m 14,0 C 17,5 C 0,0 km/h (0 Bft) 0,00 %
07.08.2015 06:41 18,1 C 77 % 1016,8 hPa 0,0 l/m 0,0 km/h (0 Bft) NO 39 5 min 0,000 mm 0,0 UV-I 153 W/m 14,0 C 18,1 C 0,0 km/h (0 Bft) 0,00 %
07.08.2015 06:46 18,7 C 74 % 1016,9 hPa 0,0 l/m 0,0 km/h (0 Bft) NO 39 5 min 0,000 mm 0,0 UV-I 174 W/m 14,0 C 18,7 C 0,0 km/h (0 Bft) 0,00 %
07.08.2015 06:51 19,2 C 71 % 1016,9 hPa 0,0 l/m 0,0 km/h (0 Bft) N-NO 33 5 min 0,000 mm 0,0 UV-I 193 W/m 13,8 C 19,2 C 0,0 km/h (0 Bft) 0,00 %
07.08.2015 06:56 19,8 C 69 % 1016,9 hPa 0,0 l/m 0,0 km/h (0 Bft) N-NO 33 5 min 0,000 mm 0,0 UV-I 211 W/m 13,9 C 19,8 C 0,0 km/h (0 Bft) 0,00 %
07.08.2015 07:01 20,3 C 67 % 1016,8 hPa 0,0 l/m 0,0 km/h (0 Bft) N-NO 33 5 min 0,000 mm 0,0 UV-I 226 W/m 14,0 C 20,3 C 0,0 km/h (0 Bft) 0,00 %
07.08.2015 07:06 20,9 C 64 % 1016,9 hPa 0,0 l/m 0,0 km/h (0 Bft) NO 34 5 min 0,000 mm 1,0 UV-I 241 W/m 13,8 C 20,9 C 0,0 km/h (0 Bft) 0,00 %
07.08.2015 07:11 21,5 C 62 % 1016,6 hPa 0,0 l/m 0,0 km/h (0 Bft) NO 34 5 min 0,000 mm 1,0 UV-I 250 W/m 13,9 C 21,5 C 0,0 km/h (0 Bft) 0,00 %
07.08.2015 07:16 22,1 C 62 % 1016,8 hPa 0,0 l/m 0,0 km/h (0 Bft) NO 34 5 min 0,000 mm 1,0 UV-I 256 W/m 14,5 C 22,1 C 0,0 km/h (0 Bft) 0,00 %
07.08.2015 07:21 22,7 C 59 % 1016,9 hPa 0,0 l/m 0,0 km/h (0 Bft) NO 34 5 min 0,000 mm 1,0 UV-I 262 W/m 14,3 C 22,7 C 0,0 km/h (0 Bft) 0,00 %
07.08.2015 07:26 23,2 C 57 % 1017,0 hPa 0,0 l/m 0,0 km/h (0 Bft) NO 35 5 min 0,000 mm 1,0 UV-I 266 W/m 14,2 C 23,2 C 0,0 km/h (0 Bft) 0,00 %
07.08.2015 07:31 23,7 C 56 % 1016,8 hPa 0,0 l/m 0,0 km/h (0 Bft) NO 37 5 min 0,000 mm 1,0 UV-I 269 W/m 14,4 C 23,7 C 0,0 km/h (0 Bft) 0,00 %
07.08.2015 07:36 24,1 C 55 % 1016,9 hPa 0,0 l/m 0,0 km/h (0 Bft) N-NO 31 5 min 0,000 mm 1,0 UV-I 272 W/m 14,5 C 24,1 C 0,0 km/h (0 Bft) 0,00 %
07.08.2015 07:41 24,6 C 54 % 1016,7 hPa 0,0 l/m 0,0 km/h (0 Bft) NO 51 5 min 0,000 mm 1,0 UV-I 275 W/m 14,7 C 24,6 C 0,0 km/h (0 Bft) 0,00 %
07.08.2015 07:46 24,9 C 52 % 1016,7 hPa 0,0 l/m 0,0 km/h (0 Bft) NO 51 5 min 0,000 mm 1,0 UV-I 278 W/m 14,4 C 24,9 C 0,0 km/h (0 Bft) 0,00 %
07.08.2015 07:52 25,2 C 50 % 1016,6 hPa 0,0 l/m 0,0 km/h (0 Bft) NO 47 6 min 0,000 mm 1,0 UV-I 282 W/m 14,0 C 25,2 C 0,0 km/h (0 Bft) 0,00 %
07.08.2015 07:57 25,4 C 50 % 1016,6 hPa 0,0 l/m 0,0 km/h (0 Bft) NO 54 5 min 0,000 mm 1,0 UV-I 287 W/m 14,2 C 25,4 C 0,0 km/h (0 Bft) 0,00 %
07.08.2015 08:02 25,6 C 51 % 1016,7 hPa 0,0 l/m 0,0 km/h (0 Bft) N-NO 28 5 min 0,000 mm 1,0 UV-I 290 W/m 14,7 C 25,6 C 0,0 km/h (0 Bft) 0,00 %
07.08.2015 08:07 25,8 C 51 % 1016,8 hPa 0,0 l/m 0,0 km/h (0 Bft) NO 36 5 min 0,000 mm 1,0 UV-I 294 W/m 14,9 C 25,8 C 0,0 km/h (0 Bft) 0,00 %
07.08.2015 08:12 25,8 C 50 % 1016,8 hPa 0,0 l/m 0,0 km/h (0 Bft) O-NO 62 5 min 0,000 mm 1,0 UV-I 301 W/m 14,6 C 25,8 C 0,0 km/h (0 Bft) 0,00 %
07.08.2015 08:17 25,7 C 50 % 1016,9 hPa 0,0 l/m 0,0 km/h (0 Bft) NO 36 5 min 0,000 mm 1,0 UV-I 308 W/m 14,5 C 25,7 C 0,0 km/h (0 Bft) 0,00 %
07.08.2015 08:22 25,8 C 49 % 1016,8 hPa 0,0 l/m 0,4 km/h (0 Bft) O 81 5 min 0,000 mm 1,0 UV-I 314 W/m 14,3 C 25,8 C 4,0 km/h (1 Bft) 0,00 %
07.08.2015 08:27 25,9 C 48 % 1016,9 hPa 0,0 l/m 0,0 km/h (0 Bft) O 83 5 min 0,000 mm 1,0 UV-I 321 W/m 14,0 C 25,9 C 0,0 km/h (0 Bft) 0,00 %
07.08.2015 08:32 26,0 C 48 % 1016,8 hPa 0,0 l/m 0,4 km/h (0 Bft) NO 46 5 min 0,000 mm 1,0 UV-I 328 W/m 14,1 C 26,0 C 4,0 km/h (1 Bft) 0,00 %
07.08.2015 08:37 26,0 C 49 % 1016,8 hPa 0,0 l/m 0,0 km/h (0 Bft) O-NO 66 5 min 0,000 mm 1,0 UV-I 334 W/m 14,4 C 26,0 C 0,0 km/h (0 Bft) 0,00 %
07.08.2015 08:42 25,9 C 49 % 1016,9 hPa 0,0 l/m 1,8 km/h (1 Bft) NO 50 5 min 0,000 mm 1,0 UV-I 341 W/m 14,4 C 25,9 C 4,0 km/h (1 Bft) 0,00 %
07.08.2015 08:47 25,9 C 48 % 1017,0 hPa 0,0 l/m 0,4 km/h (0 Bft) O-NO 62 5 min 0,000 mm 1,0 UV-I 349 W/m 14,0 C 25,9 C 4,0 km/h (1 Bft) 0,00 %
07.08.2015 08:52 26,0 C 48 % 1017,0 hPa 0,0 l/m 4,0 km/h (1 Bft) O 95 5 min 0,000 mm 1,0 UV-I 358 W/m 14,1 C 26,0 C 4,0 km/h (1 Bft) 0,00 %
07.08.2015 08:57 26,4 C 48 % 1016,9 hPa 0,0 l/m 0,4 km/h (0 Bft) NO 49 5 min 0,000 mm 1,0 UV-I 368 W/m 14,5 C 26,4 C 4,0 km/h (1 Bft) 0,00 %
07.08.2015 09:02 26,8 C 46 % 1017,0 hPa 0,0 l/m 0,0 km/h (0 Bft) NO 48 5 min 0,000 mm 1,0 UV-I 380 W/m 14,2 C 26,8 C 0,0 km/h (0 Bft) 0,00 %
07.08.2015 09:07 27,3 C 45 % 1016,9 hPa 0,0 l/m 0,7 km/h (0 Bft) NO 46 5 min 0,000 mm 2,0 UV-I 391 W/m 14,3 C 27,3 C 4,0 km/h (1 Bft) 0,00 %
07.08.2015 09:12 27,6 C 45 % 1016,8 hPa 0,0 l/m 2,9 km/h (1 Bft) O 97 5 min 0,000 mm 2,0 UV-I 401 W/m 14,6 C 27,6 C 4,0 km/h (1 Bft) 0,00 %
07.08.2015 09:17 27,6 C 46 % 1016,9 hPa 0,0 l/m 0,7 km/h (0 Bft) O-NO 69 5 min 0,000 mm 2,0 UV-I 411 W/m 14,9 C 27,6 C 4,0 km/h (1 Bft) 0,00 %
07.08.2015 09:22 27,6 C 46 % 1017,0 hPa 0,0 l/m 1,4 km/h (1 Bft) S-SO 153 5 min 0,000 mm 2,0 UV-I 422 W/m 14,9 C 27,6 C 4,0 km/h (1 Bft) 0,00 %
07.08.2015 09:27 27,6 C 45 % 1016,9 hPa 0,0 l/m 0,7 km/h (0 Bft) NO 54 5 min 0,000 mm 2,0 UV-I 432 W/m 14,6 C 27,6 C 4,0 km/h (1 Bft) 0,00 %
07.08.2015 09:32 27,5 C 46 % 1016,9 hPa 0,0 l/m 0,0 km/h (0 Bft) NO 51 5 min 0,000 mm 2,0 UV-I 441 W/m 14,8 C 27,5 C 0,0 km/h (0 Bft) 0,00 %
07.08.2015 09:37 27,5 C 47 % 1016,8 hPa 0,0 l/m 0,0 km/h (0 Bft) N 353 5 min 0,000 mm 2,0 UV-I 453 W/m 15,2 C 27,5 C 0,0 km/h (0 Bft) 0,00 %
07.08.2015 09:42 27,8 C 44 % 1016,9 hPa 0,0 l/m 2,9 km/h (1 Bft) NO 45 5 min 0,000 mm 2,0 UV-I 468 W/m 14,4 C 27,8 C 4,0 km/h (1 Bft) 0,00 %
07.08.2015 09:47 28,2 C 44 % 1016,8 hPa 0,0 l/m 0,0 km/h (0 Bft) NO 51 5 min 0,000 mm 2,0 UV-I 484 W/m 14,8 C 28,2 C 0,0 km/h (0 Bft) 0,00 %
07.08.2015 09:52 28,7 C 43 % 1016,9 hPa 0,0 l/m 4,0 km/h (1 Bft) O-SO 111 5 min 0,000 mm 2,0 UV-I 494 W/m 14,9 C 28,7 C 7,9 km/h (2 Bft) 0,00 %
07.08.2015 09:57 29,0 C 43 % 1017,0 hPa 0,0 l/m 7,9 km/h (2 Bft) O 98 5 min 0,000 mm 2,0 UV-I 506 W/m 15,1 C 28,8 C 11,9 km/h (2 Bft) 0,00 %
07.08.2015 10:02 28,9 C 45 % 1016,8 hPa 0,0 l/m 6,8 km/h (2 Bft) O-SO 121 5 min 0,000 mm 2,0 UV-I 514 W/m 15,8 C 28,8 C 7,9 km/h (2 Bft) 0,00 %
07.08.2015 10:07 28,8 C 43 % 1016,9 hPa 0,0 l/m 0,7 km/h (0 Bft) O-NO 62 5 min 0,000 mm 2,0 UV-I 526 W/m 15,0 C 28,8 C 4,0 km/h (1 Bft) 0,00 %
07.08.2015 10:12 28,7 C 44 % 1016,8 hPa 0,0 l/m 5,4 km/h (1 Bft) O 79 5 min 0,000 mm 2,0 UV-I 538 W/m 15,2 C 28,7 C 7,9 km/h (2 Bft) 0,00 %
07.08.2015 10:17 28,7 C 44 % 1016,9 hPa 0,0 l/m 1,4 km/h (1 Bft) NO 46 5 min 0,000 mm 2,0 UV-I 552 W/m 15,2 C 28,7 C 4,0 km/h (1 Bft) 0,00 %
07.08.2015 10:22 29,1 C 42 % 1016,8 hPa 0,0 l/m 0,0 km/h (0 Bft) O-NO 68 5 min 0,000 mm 2,0 UV-I 571 W/m 14,9 C 29,1 C 0,0 km/h (0 Bft) 0,00 %
07.08.2015 10:27 29,7 C 40 % 1016,8 hPa 0,0 l/m 0,4 km/h (0 Bft) O 101 5 min 0,000 mm 2,0 UV-I 584 W/m 14,6 C 29,7 C 4,0 km/h (1 Bft) 0,00 %
07.08.2015 10:32 30,1 C 41 % 1016,9 hPa 0,0 l/m 0,7 km/h (0 Bft) O-NO 62 5 min 0,000 mm 2,0 UV-I 597 W/m 15,4 C 30,1 C 4,0 km/h (1 Bft) 0,00 %
07.08.2015 10:37 30,3 C 40 % 1016,9 hPa 0,0 l/m 0,0 km/h (0 Bft) N-NO 21 5 min 0,000 mm 3,0 UV-I 612 W/m 15,2 C 30,3 C 0,0 km/h (0 Bft) 0,00 %
07.08.2015 10:42 30,5 C 40 % 1016,9 hPa 0,0 l/m 1,4 km/h (1 Bft) O-NO 65 5 min 0,000 mm 3,0 UV-I 623 W/m 15,3 C 30,5 C 4,0 km/h (1 Bft) 0,00 %
07.08.2015 10:47 30,4 C 41 % 1016,9 hPa 0,0 l/m 1,8 km/h (1 Bft) O-SO 110 5 min 0,000 mm 3,0 UV-I 640 W/m 15,6 C 30,4 C 4,0 km/h (1 Bft) 0,00 %
07.08.2015 10:52 30,6 C 40 % 1016,8 hPa 0,0 l/m 0,7 km/h (0 Bft) O-NO 66 5 min 0,000 mm 3,0 UV-I 654 W/m 15,4 C 30,6 C 4,0 km/h (1 Bft) 0,00 %
07.08.2015 10:57 30,9 C 39 % 1016,9 hPa 0,0 l/m 3,2 km/h (1 Bft) O 100 5 min 0,000 mm 3,0 UV-I 668 W/m 15,3 C 30,9 C 4,0 km/h (1 Bft) 0,00 %
07.08.2015 11:02 31,2 C 39 % 1016,7 hPa 0,0 l/m 4,7 km/h (1 Bft) SO 125 5 min 0,000 mm 3,0 UV-I 683 W/m 15,6 C 31,2 C 7,9 km/h (2 Bft) 0,00 %
07.08.2015 11:07 31,5 C 39 % 1016,6 hPa 0,0 l/m 0,4 km/h (0 Bft) NO 44 5 min 0,000 mm 3,0 UV-I 695 W/m 15,8 C 31,5 C 4,0 km/h (1 Bft) 0,00 %
07.08.2015 11:12 31,6 C 40 % 1016,5 hPa 0,0 l/m 0,0 km/h (0 Bft) O-NO 62 5 min 0,000 mm 3,0 UV-I 710 W/m 16,3 C 31,6 C 0,0 km/h (0 Bft) 0,00 %
07.08.2015 11:17 31,5 C 39 % 1016,6 hPa 0,0 l/m 3,2 km/h (1 Bft) NO 48 5 min 0,000 mm 3,0 UV-I 727 W/m 15,8 C 31,5 C 7,9 km/h (2 Bft) 0,00 %
07.08.2015 11:22 31,5 C 39 % 1016,6 hPa 0,0 l/m 3,2 km/h (1 Bft) O-NO 71 5 min 0,000 mm 4,0 UV-I 735 W/m 15,8 C 31,5 C 4,0 km/h (1 Bft) 0,00 %
07.08.2015 11:27 31,6 C 40 % 1016,3 hPa 0,0 l/m 2,2 km/h (1 Bft) O-SO 110 5 min 0,000 mm 4,0 UV-I 750 W/m 16,3 C 31,6 C 4,0 km/h (1 Bft) 0,00 %
07.08.2015 11:32 31,9 C 37 % 1016,5 hPa 0,0 l/m 0,0 km/h (0 Bft) O 86 5 min 0,000 mm 4,0 UV-I 762 W/m 15,4 C 31,9 C 0,0 km/h (0 Bft) 0,00 %
07.08.2015 11:37 32,3 C 37 % 1016,4 hPa 0,0 l/m 9,7 km/h (2 Bft) O-SO 106 5 min 0,000 mm 4,0 UV-I 771 W/m 15,7 C 32,2 C 15,8 km/h (3 Bft) 0,00 %
07.08.2015 11:42 32,5 C 37 % 1016,4 hPa 0,0 l/m 6,8 km/h (2 Bft) SO 128 5 min 0,000 mm 4,0 UV-I 772 W/m 15,9 C 32,5 C 7,9 km/h (2 Bft) 0,00 %
07.08.2015 11:47 32,5 C 36 % 1016,4 hPa 0,0 l/m 9,0 km/h (2 Bft) O 97 5 min 0,000 mm 4,0 UV-I 790 W/m 15,5 C 32,5 C 11,9 km/h (2 Bft) 0,00 %
07.08.2015 11:52 32,6 C 35 % 1016,3 hPa 0,0 l/m 1,4 km/h (1 Bft) O-SO 115 5 min 0,000 mm 4,0 UV-I 791 W/m 15,1 C 32,6 C 4,0 km/h (1 Bft) 0,00 %
07.08.2015 11:57 32,9 C 35 % 1016,3 hPa 0,0 l/m 2,2 km/h (1 Bft) SO 127 5 min 0,000 mm 4,0 UV-I 802 W/m 15,4 C 32,9 C 4,0 km/h (1 Bft) 0,00 %
07.08.2015 12:02 33,0 C 35 % 1016,3 hPa 0,0 l/m 5,4 km/h (1 Bft) NO 36 5 min 0,000 mm 4,0 UV-I 809 W/m 15,5 C 33,0 C 7,9 km/h (2 Bft) 0,00 %
07.08.2015 12:07 33,0 C 34 % 1016,2 hPa 0,0 l/m 0,0 km/h (0 Bft) NO 43 5 min 0,000 mm 4,0 UV-I 815 W/m 15,0 C 33,0 C 0,0 km/h (0 Bft) 0,00 %
07.08.2015 12:12 33,2 C 33 % 1016,2 hPa 0,0 l/m 1,4 km/h (1 Bft) O 98 5 min 0,000 mm 4,0 UV-I 819 W/m 14,7 C 33,2 C 4,0 km/h (1 Bft) 0,00 %
07.08.2015 12:17 33,3 C 33 % 1016,3 hPa 0,0 l/m 4,0 km/h (1 Bft) N-NO 16 5 min 0,000 mm 4,0 UV-I 825 W/m 14,8 C 33,3 C 7,9 km/h (2 Bft) 0,00 %
07.08.2015 12:22 33,2 C 33 % 1016,1 hPa 0,0 l/m 0,0 km/h (0 Bft) O-SO 109 5 min 0,000 mm 4,0 UV-I 828 W/m 14,7 C 33,2 C 0,0 km/h (0 Bft) 0,00 %
07.08.2015 12:27 33,2 C 33 % 1016,1 hPa 0,0 l/m 5,8 km/h (2 Bft) O-SO 117 5 min 0,000 mm 5,0 UV-I 833 W/m 14,7 C 33,2 C 7,9 km/h (2 Bft) 0,00 %
07.08.2015 12:32 33,2 C 33 % 1015,9 hPa 0,0 l/m 7,9 km/h (2 Bft) SO 125 5 min 0,000 mm 5,0 UV-I 833 W/m 14,7 C 33,2 C 11,9 km/h (2 Bft) 0,00 %
07.08.2015 12:37 33,2 C 33 % 1015,9 hPa 0,0 l/m 5,8 km/h (2 Bft) O-SO 118 5 min 0,000 mm 5,0 UV-I 840 W/m 14,7 C 33,2 C 7,9 km/h (2 Bft) 0,00 %
07.08.2015 12:42 33,2 C 32 % 1015,9 hPa 0,0 l/m 5,4 km/h (1 Bft) S-SO 149 5 min 0,000 mm 5,0 UV-I 844 W/m 14,2 C 33,2 C 7,9 km/h (2 Bft) 0,00 %
07.08.2015 12:47 33,3 C 31 % 1015,8 hPa 0,0 l/m 5,8 km/h (2 Bft) O-SO 117 5 min 0,000 mm 5,0 UV-I 847 W/m 13,8 C 33,3 C 7,9 km/h (2 Bft) 0,00 %
07.08.2015 12:52 33,4 C 33 % 1015,8 hPa 0,0 l/m 1,8 km/h (1 Bft) O-SO 105 5 min 0,000 mm 5,0 UV-I 855 W/m 14,9 C 33,4 C 4,0 km/h (1 Bft) 0,00 %
07.08.2015 12:57 33,6 C 30 % 1015,6 hPa 0,0 l/m 0,0 km/h (0 Bft) O-SO 104 5 min 0,000 mm 5,0 UV-I 866 W/m 13,6 C 33,6 C 0,0 km/h (0 Bft) 0,00 %
07.08.2015 13:02 33,9 C 31 % 1015,6 hPa 0,0 l/m 7,2 km/h (2 Bft) NO 34 5 min 0,000 mm 5,0 UV-I 877 W/m 14,4 C 33,9 C 11,9 km/h (2 Bft) 0,00 %
07.08.2015 13:07 33,9 C 31 % 1015,7 hPa 0,0 l/m 1,4 km/h (1 Bft) O-NO 68 5 min 0,000 mm 5,0 UV-I 857 W/m 14,4 C 33,9 C 4,0 km/h (1 Bft) 0,00 %
07.08.2015 13:12 33,7 C 30 % 1015,6 hPa 0,0 l/m 0,0 km/h (0 Bft) NO 54 5 min 0,000 mm 5,0 UV-I 877 W/m 13,7 C 33,7 C 0,0 km/h (0 Bft) 0,00 %
07.08.2015 13:17 33,9 C 30 % 1015,7 hPa 0,0 l/m 6,5 km/h (2 Bft) O-NO 60 5 min 0,000 mm 5,0 UV-I 891 W/m 13,9 C 33,9 C 7,9 km/h (2 Bft) 0,00 %
07.08.2015 13:22 34,1 C 30 % 1015,7 hPa 0,0 l/m 4,0 km/h (1 Bft) O-NO 76 5 min 0,000 mm 5,0 UV-I 889 W/m 14,0 C 34,1 C 4,0 km/h (1 Bft) 0,00 %
07.08.2015 13:27 34,1 C 29 % 1015,6 hPa 0,0 l/m 0,7 km/h (0 Bft) N 352 5 min 0,000 mm 5,0 UV-I 899 W/m 13,5 C 34,1 C 4,0 km/h (1 Bft) 0,00 %
07.08.2015 13:32 34,3 C 26 % 1015,4 hPa 0,0 l/m 0,0 km/h (0 Bft) O 88 5 min 0,000 mm 4,0 UV-I 896 W/m 12,0 C 34,3 C 0,0 km/h (0 Bft) 0,00 %
07.08.2015 13:37 34,5 C 28 % 1015,4 hPa 0,0 l/m 0,7 km/h (0 Bft) O 83 5 min 0,000 mm 4,0 UV-I 915 W/m 13,3 C 34,5 C 4,0 km/h (1 Bft) 0,00 %
07.08.2015 13:42 34,7 C 26 % 1015,3 hPa 0,0 l/m 0,4 km/h (0 Bft) O-SO 102 5 min 0,000 mm 4,0 UV-I 896 W/m 12,3 C 34,7 C 4,0 km/h (1 Bft) 0,00 %
07.08.2015 13:47 34,8 C 25 % 1015,4 hPa 0,0 l/m 1,4 km/h (1 Bft) O-NO 57 5 min 0,000 mm 4,0 UV-I 918 W/m 11,8 C 34,8 C 4,0 km/h (1 Bft) 0,00 %
07.08.2015 13:52 34,8 C 24 % 1015,4 hPa 0,0 l/m 0,0 km/h (0 Bft) NO 43 5 min 0,000 mm 4,0 UV-I 929 W/m 11,2 C 34,8 C 0,0 km/h (0 Bft) 0,00 %
07.08.2015 13:57 34,6 C 26 % 1015,6 hPa 0,0 l/m 0,4 km/h (0 Bft) N 9 5 min 0,000 mm 4,0 UV-I 930 W/m 12,3 C 34,6 C 4,0 km/h (1 Bft) 0,00 %
07.08.2015 14:02 34,6 C 22 % 1015,3 hPa 0,0 l/m 0,0 km/h (0 Bft) O 85 5 min 0,000 mm 4,0 UV-I 938 W/m 9,7 C 34,6 C 0,0 km/h (0 Bft) 0,00 %
07.08.2015 14:07 34,8 C 22 % 1015,3 hPa 0,0 l/m 0,0 km/h (0 Bft) N-NW 334 5 min 0,000 mm 4,0 UV-I 947 W/m 9,9 C 34,8 C 0,0 km/h (0 Bft) 0,00 %
07.08.2015 14:12 35,2 C 25 % 1015,3 hPa 0,0 l/m 10,8 km/h (2 Bft) SO 128 5 min 0,000 mm 4,0 UV-I 961 W/m 12,2 C 35,2 C 15,8 km/h (3 Bft) 0,00 %
07.08.2015 14:17 35,1 C 26 % 1015,4 hPa 0,0 l/m 4,3 km/h (1 Bft) NO 39 5 min 0,000 mm 4,0 UV-I 931 W/m 12,7 C 35,1 C 7,9 km/h (2 Bft) 0,00 %
07.08.2015 14:22 34,8 C 27 % 1015,2 hPa 0,0 l/m 1,4 km/h (1 Bft) N-NO 13 5 min 0,000 mm 4,0 UV-I 923 W/m 13,0 C 34,8 C 4,0 km/h (1 Bft) 0,00 %
07.08.2015 14:27 34,8 C 24 % 1015,2 hPa 0,0 l/m 0,0 km/h (0 Bft) O 101 5 min 0,000 mm 4,0 UV-I 949 W/m 11,2 C 34,8 C 0,0 km/h (0 Bft) 0,00 %
07.08.2015 14:32 35,1 C 24 % 1015,3 hPa 0,0 l/m 4,3 km/h (1 Bft) O-SO 123 5 min 0,000 mm 4,0 UV-I 940 W/m 11,5 C 35,1 C 7,9 km/h (2 Bft) 0,00 %
07.08.2015 14:37 35,2 C 22 % 1015,3 hPa 0,0 l/m 0,0 km/h (0 Bft) NO 45 5 min 0,000 mm 4,0 UV-I 931 W/m 10,2 C 35,2 C 0,0 km/h (0 Bft) 0,00 %
07.08.2015 14:42 35,1 C 24 % 1015,3 hPa 0,0 l/m 3,2 km/h (1 Bft) O-SO 112 5 min 0,000 mm 4,0 UV-I 936 W/m 11,5 C 35,1 C 4,0 km/h (1 Bft) 0,00 %
07.08.2015 14:47 35,1 C 22 % 1015,1 hPa 0,0 l/m 0,0 km/h (0 Bft) O-NO 64 5 min 0,000 mm 4,0 UV-I 921 W/m 10,2 C 35,1 C 0,0 km/h (0 Bft) 0,00 %
07.08.2015 14:52 35,2 C 24 % 1015,0 hPa 0,0 l/m 7,2 km/h (2 Bft) N-NO 33 5 min 0,000 mm 4,0 UV-I 941 W/m 11,5 C 35,2 C 11,9 km/h (2 Bft) 0,00 %
07.08.2015 14:57 35,4 C 22 % 1014,9 hPa 0,0 l/m 0,0 km/h (0 Bft) NO 47 5 min 0,000 mm 4,0 UV-I 928 W/m 10,4 C 35,4 C 0,0 km/h (0 Bft) 0,00 %
07.08.2015 15:02 35,5 C 22 % 1014,9 hPa 0,0 l/m 11,9 km/h (2 Bft) SO 128 5 min 0,000 mm 4,0 UV-I 933 W/m 10,5 C 35,5 C 15,8 km/h (3 Bft) 0,00 %
07.08.2015 15:07 35,5 C 21 % 1015,0 hPa 0,0 l/m 4,0 km/h (1 Bft) O-SO 107 5 min 0,000 mm 4,0 UV-I 951 W/m 9,8 C 35,5 C 4,0 km/h (1 Bft) 0,00 %
07.08.2015 15:12 35,4 C 21 % 1015,2 hPa 0,0 l/m 0,0 km/h (0 Bft) NO 35 5 min 0,000 mm 4,0 UV-I 952 W/m 9,7 C 35,4 C 0,0 km/h (0 Bft) 0,00 %
07.08.2015 15:17 35,5 C 21 % 1015,0 hPa 0,0 l/m 0,7 km/h (0 Bft) N-NO 27 5 min 0,000 mm 3,0 UV-I 956 W/m 9,8 C 35,5 C 4,0 km/h (1 Bft) 0,00 %
07.08.2015 15:22 35,6 C 24 % 1014,9 hPa 0,0 l/m 0,0 km/h (0 Bft) O 79 5 min 0,000 mm 3,0 UV-I 953 W/m 11,9 C 35,6 C 0,0 km/h (0 Bft) 0,00 %
07.08.2015 15:27 35,6 C 22 % 1015,0 hPa 0,0 l/m 4,0 km/h (1 Bft) O 96 5 min 0,000 mm 3,0 UV-I 953 W/m 10,6 C 35,6 C 7,9 km/h (2 Bft) 0,00 %
07.08.2015 15:32 35,8 C 20 % 1014,7 hPa 0,0 l/m 3,2 km/h (1 Bft) S-SO 155 5 min 0,000 mm 3,0 UV-I 952 W/m 9,3 C 35,8 C 7,9 km/h (2 Bft) 0,00 %
07.08.2015 15:37 35,8 C 21 % 1014,8 hPa 0,0 l/m 5,4 km/h (1 Bft) O 86 5 min 0,000 mm 3,0 UV-I 946 W/m 10,0 C 35,8 C 7,9 km/h (2 Bft) 0,00 %
07.08.2015 15:42 35,8 C 21 % 1014,8 hPa 0,0 l/m 5,4 km/h (1 Bft) O-NO 69 5 min 0,000 mm 3,0 UV-I 939 W/m 10,0 C 35,8 C 7,9 km/h (2 Bft) 0,00 %
07.08.2015 15:47 35,7 C 22 % 1014,8 hPa 0,0 l/m 0,4 km/h (0 Bft) O 97 5 min 0,000 mm 3,0 UV-I 941 W/m 10,6 C 35,7 C 4,0 km/h (1 Bft) 0,00 %
07.08.2015 15:52 35,6 C 21 % 1014,9 hPa 0,0 l/m 9,0 km/h (2 Bft) SO 136 5 min 0,000 mm 3,0 UV-I 934 W/m 9,9 C 35,6 C 11,9 km/h (2 Bft) 0,00 %
07.08.2015 15:57 35,4 C 24 % 1014,8 hPa 0,0 l/m 2,2 km/h (1 Bft) O 100 5 min 0,000 mm 3,0 UV-I 923 W/m 11,7 C 35,4 C 4,0 km/h (1 Bft) 0,00 %
07.08.2015 16:02 35,3 C 22 % 1014,9 hPa 0,0 l/m 5,8 km/h (2 Bft) O-SO 114 5 min 0,000 mm 3,0 UV-I 912 W/m 10,3 C 35,3 C 7,9 km/h (2 Bft) 0,00 %
07.08.2015 16:07 35,1 C 22 % 1014,8 hPa 0,0 l/m 2,2 km/h (1 Bft) NO 42 5 min 0,000 mm 3,0 UV-I 904 W/m 10,2 C 35,1 C 4,0 km/h (1 Bft) 0,00 %
07.08.2015 16:12 35,1 C 23 % 1014,8 hPa 0,0 l/m 1,8 km/h (1 Bft) O-NO 73 5 min 0,000 mm 2,0 UV-I 899 W/m 10,8 C 35,1 C 4,0 km/h (1 Bft) 0,00 %
07.08.2015 16:17 35,2 C 22 % 1014,9 hPa 0,0 l/m 10,4 km/h (2 Bft) SO 130 5 min 0,000 mm 2,0 UV-I 895 W/m 10,2 C 35,2 C 15,8 km/h (3 Bft) 0,00 %
07.08.2015 16:22 35,2 C 23 % 1014,9 hPa 0,0 l/m 0,0 km/h (0 Bft) N-NO 28 5 min 0,000 mm 1,0 UV-I 893 W/m 10,9 C 35,2 C 0,0 km/h (0 Bft) 0,00 %
07.08.2015 16:27 35,3 C 21 % 1014,8 hPa 0,0 l/m 0,0 km/h (0 Bft) NO 38 5 min 0,000 mm 1,0 UV-I 903 W/m 9,6 C 35,3 C 0,0 km/h (0 Bft) 0,00 %
07.08.2015 16:32 35,4 C 22 % 1014,9 hPa 0,0 l/m 0,4 km/h (0 Bft) O-NO 59 5 min 0,000 mm 1,0 UV-I 903 W/m 10,4 C 35,4 C 4,0 km/h (1 Bft) 0,00 %
07.08.2015 16:37 35,6 C 22 % 1014,8 hPa 0,0 l/m 0,0 km/h (0 Bft) O-NO 64 5 min 0,000 mm 1,0 UV-I 903 W/m 10,6 C 35,6 C 0,0 km/h (0 Bft) 0,00 %
07.08.2015 16:42 35,8 C 21 % 1014,8 hPa 0,0 l/m 0,0 km/h (0 Bft) O-NO 66 5 min 0,000 mm 1,0 UV-I 880 W/m 10,0 C 35,8 C 0,0 km/h (0 Bft) 0,00 %
07.08.2015 16:47 35,9 C 21 % 1014,7 hPa 0,0 l/m 6,8 km/h (2 Bft) SO 133 5 min 0,000 mm 1,0 UV-I 872 W/m 10,1 C 35,9 C 11,9 km/h (2 Bft) 0,00 %
07.08.2015 16:52 35,5 C 22 % 1014,7 hPa 0,0 l/m 4,0 km/h (1 Bft) N-NW 337 5 min 0,000 mm 1,0 UV-I 862 W/m 10,5 C 35,5 C 7,9 km/h (2 Bft) 0,00 %
07.08.2015 16:57 35,2 C 21 % 1014,7 hPa 0,0 l/m 2,2 km/h (1 Bft) O-SO 108 5 min 0,000 mm 1,0 UV-I 860 W/m 9,5 C 35,2 C 4,0 km/h (1 Bft) 0,00 %
07.08.2015 17:02 35,2 C 22 % 1014,7 hPa 0,0 l/m 0,4 km/h (0 Bft) O-NO 76 5 min 0,000 mm 1,0 UV-I 857 W/m 10,2 C 35,2 C 4,0 km/h (1 Bft) 0,00 %
07.08.2015 17:07 35,4 C 22 % 1014,7 hPa 0,0 l/m 0,7 km/h (0 Bft) NO 51 5 min 0,000 mm 1,0 UV-I 853 W/m 10,4 C 35,4 C 4,0 km/h (1 Bft) 0,00 %
07.08.2015 17:12 35,4 C 22 % 1014,6 hPa 0,0 l/m 4,7 km/h (1 Bft) O-NO 59 5 min 0,000 mm 1,0 UV-I 840 W/m 10,4 C 35,4 C 7,9 km/h (2 Bft) 0,00 %
07.08.2015 17:17 35,3 C 22 % 1014,6 hPa 0,0 l/m 2,9 km/h (1 Bft) O-NO 72 5 min 0,000 mm 1,0 UV-I 827 W/m 10,3 C 35,3 C 4,0 km/h (1 Bft) 0,00 %
07.08.2015 17:22 35,2 C 22 % 1014,6 hPa 0,0 l/m 2,9 km/h (1 Bft) O-NO 73 5 min 0,000 mm 1,0 UV-I 818 W/m 10,2 C 35,2 C 4,0 km/h (1 Bft) 0,00 %
07.08.2015 17:27 35,1 C 23 % 1014,7 hPa 0,0 l/m 1,8 km/h (1 Bft) O-NO 60 5 min 0,000 mm 1,0 UV-I 814 W/m 10,8 C 35,1 C 4,0 km/h (1 Bft) 0,00 %
07.08.2015 17:32 35,1 C 22 % 1014,6 hPa 0,0 l/m 5,8 km/h (2 Bft) O-SO 115 5 min 0,000 mm 1,0 UV-I 807 W/m 10,2 C 35,1 C 7,9 km/h (2 Bft) 0,00 %
07.08.2015 17:37 35,0 C 22 % 1014,6 hPa 0,0 l/m 6,8 km/h (2 Bft) O 96 5 min 0,000 mm 1,0 UV-I 784 W/m 10,1 C 35,0 C 11,9 km/h (2 Bft) 0,00 %
07.08.2015 17:42 34,9 C 23 % 1014,7 hPa 0,0 l/m 4,3 km/h (1 Bft) O-NO 71 5 min 0,000 mm 1,0 UV-I 770 W/m 10,7 C 34,9 C 7,9 km/h (2 Bft) 0,00 %
07.08.2015 17:47 34,9 C 21 % 1014,6 hPa 0,0 l/m 0,0 km/h (0 Bft) O 90 5 min 0,000 mm 1,0 UV-I 764 W/m 9,3 C 34,9 C 0,0 km/h (0 Bft) 0,00 %
07.08.2015 17:52 35,0 C 23 % 1014,4 hPa 0,0 l/m 0,4 km/h (0 Bft) NO 39 5 min 0,000 mm 1,0 UV-I 752 W/m 10,7 C 35,0 C 4,0 km/h (1 Bft) 0,00 %
07.08.2015 17:57 35,0 C 22 % 1014,7 hPa 0,0 l/m 4,0 km/h (1 Bft) O-NO 76 5 min 0,000 mm 1,0 UV-I 739 W/m 10,1 C 35,0 C 7,9 km/h (2 Bft) 0,00 %
07.08.2015 18:02 35,0 C 23 % 1014,6 hPa 0,0 l/m 6,8 km/h (2 Bft) O-SO 119 5 min 0,000 mm 1,0 UV-I 736 W/m 10,7 C 35,0 C 11,9 km/h (2 Bft) 0,00 %
07.08.2015 18:07 34,8 C 23 % 1014,5 hPa 0,0 l/m 4,0 km/h (1 Bft) O 101 5 min 0,000 mm 1,0 UV-I 716 W/m 10,6 C 34,8 C 7,9 km/h (2 Bft) 0,00 %
07.08.2015 18:12 34,7 C 24 % 1014,4 hPa 0,0 l/m 0,7 km/h (0 Bft) O 82 5 min 0,000 mm 1,0 UV-I 702 W/m 11,1 C 34,7 C 4,0 km/h (1 Bft) 0,00 %
07.08.2015 18:17 34,7 C 23 % 1014,4 hPa 0,0 l/m 4,0 km/h (1 Bft) O-NO 76 5 min 0,000 mm 1,0 UV-I 694 W/m 10,5 C 34,7 C 7,9 km/h (2 Bft) 0,00 %
07.08.2015 18:22 34,7 C 22 % 1014,4 hPa 0,0 l/m 4,0 km/h (1 Bft) SO 128 5 min 0,000 mm 1,0 UV-I 675 W/m 9,8 C 34,7 C 7,9 km/h (2 Bft) 0,00 %
07.08.2015 18:27 34,6 C 23 % 1014,4 hPa 0,0 l/m 2,9 km/h (1 Bft) O 83 5 min 0,000 mm 1,0 UV-I 652 W/m 10,4 C 34,6 C 4,0 km/h (1 Bft) 0,00 %
07.08.2015 18:32 34,5 C 23 % 1014,3 hPa 0,0 l/m 5,8 km/h (2 Bft) O 87 5 min 0,000 mm 1,0 UV-I 633 W/m 10,3 C 34,5 C 7,9 km/h (2 Bft) 0,00 %
07.08.2015 18:37 34,5 C 23 % 1014,3 hPa 0,0 l/m 4,0 km/h (1 Bft) O-SO 123 5 min 0,000 mm 1,0 UV-I 621 W/m 10,3 C 34,5 C 7,9 km/h (2 Bft) 0,00 %
07.08.2015 18:42 34,4 C 24 % 1014,2 hPa 0,0 l/m 0,0 km/h (0 Bft) O 79 5 min 0,000 mm 1,0 UV-I 600 W/m 10,9 C 34,4 C 0,0 km/h (0 Bft) 0,00 %
07.08.2015 18:47 34,4 C 24 % 1014,2 hPa 0,0 l/m 3,2 km/h (1 Bft) NO 49 5 min 0,000 mm 1,0 UV-I 578 W/m 10,9 C 34,4 C 4,0 km/h (1 Bft) 0,00 %
07.08.2015 18:52 34,3 C 25 % 1014,2 hPa 0,0 l/m 4,0 km/h (1 Bft) O 90 5 min 0,000 mm 1,0 UV-I 561 W/m 11,4 C 34,3 C 11,9 km/h (2 Bft) 0,00 %
07.08.2015 18:57 34,2 C 24 % 1014,1 hPa 0,0 l/m 0,4 km/h (0 Bft) N 1 5 min 0,000 mm 1,0 UV-I 540 W/m 10,7 C 34,2 C 4,0 km/h (1 Bft) 0,00 %
07.08.2015 19:02 34,1 C 26 % 1014,3 hPa 0,0 l/m 0,7 km/h (0 Bft) O 96 5 min 0,000 mm 1,0 UV-I 518 W/m 11,8 C 34,1 C 4,0 km/h (1 Bft) 0,00 %
07.08.2015 19:07 34,0 C 27 % 1014,3 hPa 0,0 l/m 2,2 km/h (1 Bft) O 87 5 min 0,000 mm 1,0 UV-I 489 W/m 12,3 C 34,0 C 4,0 km/h (1 Bft) 0,00 %
07.08.2015 19:12 33,7 C 27 % 1014,5 hPa 0,0 l/m 4,3 km/h (1 Bft) NO 47 5 min 0,000 mm 1,0 UV-I 458 W/m 12,1 C 33,7 C 7,9 km/h (2 Bft) 0,00 %
07.08.2015 19:17 33,5 C 27 % 1014,3 hPa 0,0 l/m 0,4 km/h (0 Bft) O-SO 111 5 min 0,000 mm 1,0 UV-I 424 W/m 11,9 C 33,5 C 4,0 km/h (1 Bft) 0,00 %
07.08.2015 19:22 33,3 C 28 % 1014,3 hPa 0,0 l/m 0,4 km/h (0 Bft) O 82 5 min 0,000 mm 0,0 UV-I 392 W/m 12,3 C 33,3 C 4,0 km/h (1 Bft) 0,00 %
07.08.2015 19:27 33,2 C 28 % 1014,2 hPa 0,0 l/m 2,9 km/h (1 Bft) NO 56 5 min 0,000 mm 0,0 UV-I 359 W/m 12,2 C 33,2 C 7,9 km/h (2 Bft) 0,00 %
07.08.2015 19:32 33,1 C 29 % 1014,1 hPa 0,0 l/m 0,7 km/h (0 Bft) O 92 5 min 0,000 mm 0,0 UV-I 324 W/m 12,6 C 33,1 C 4,0 km/h (1 Bft) 0,00 %
07.08.2015 19:37 32,9 C 30 % 1014,3 hPa 0,0 l/m 0,0 km/h (0 Bft) O-NO 78 5 min 0,000 mm 0,0 UV-I 285 W/m 13,0 C 32,9 C 0,0 km/h (0 Bft) 0,00 %
07.08.2015 19:42 32,7 C 31 % 1014,4 hPa 0,0 l/m 0,0 km/h (0 Bft) NO 54 5 min 0,000 mm 0,0 UV-I 248 W/m 13,3 C 32,7 C 0,0 km/h (0 Bft) 0,00 %
07.08.2015 19:47 32,5 C 32 % 1014,2 hPa 0,0 l/m 0,0 km/h (0 Bft) O-NO 61 5 min 0,000 mm 0,0 UV-I 205 W/m 13,6 C 32,5 C 0,0 km/h (0 Bft) 0,00 %
07.08.2015 19:52 32,4 C 32 % 1014,5 hPa 0,0 l/m 0,0 km/h (0 Bft) O-NO 59 5 min 0,000 mm 0,0 UV-I 88 W/m 13,6 C 32,4 C 0,0 km/h (0 Bft) 0,00 %
07.08.2015 19:57 32,1 C 29 % 1014,4 hPa 0,0 l/m 0,0 km/h (0 Bft) NO 55 5 min 0,000 mm 0,0 UV-I 60 W/m 11,8 C 32,1 C 0,0 km/h (0 Bft) 0,00 %
07.08.2015 20:02 31,6 C 30 % 1014,6 hPa 0,0 l/m 0,0 km/h (0 Bft) O 89 5 min 0,000 mm 0,0 UV-I 46 W/m 11,9 C 31,6 C 0,0 km/h (0 Bft) 0,00 %
07.08.2015 20:07 31,0 C 31 % 1014,5 hPa 0,0 l/m 0,0 km/h (0 Bft) O-NO 61 5 min 0,000 mm 0,0 UV-I 37 W/m 11,9 C 31,0 C 0,0 km/h (0 Bft) 0,00 %
07.08.2015 20:12 30,5 C 33 % 1014,7 hPa 0,0 l/m 0,0 km/h (0 Bft) NO 51 5 min 0,000 mm 0,0 UV-I 27 W/m 12,4 C 30,5 C 0,0 km/h (0 Bft) 0,00 %
07.08.2015 20:17 30,0 C 34 % 1014,5 hPa 0,0 l/m 0,0 km/h (0 Bft) O-NO 61 5 min 0,000 mm 0,0 UV-I 19 W/m 12,4 C 30,0 C 0,0 km/h (0 Bft) 0,00 %
07.08.2015 20:22 29,6 C 35 % 1014,7 hPa 0,0 l/m 0,0 km/h (0 Bft) O-NO 58 0 min 0,000 mm 0,0 UV-I 9 W/m 12,5 C 29,6 C 0,0 km/h (0 Bft) 0,00 %
07.08.2015 20:27 29,2 C 37 % 1014,8 hPa 0,0 l/m 0,0 km/h (0 Bft) NO 51 0 min 0,000 mm 0,0 UV-I 4 W/m 13,0 C 29,2 C 0,0 km/h (0 Bft) 0,00 %
07.08.2015 20:32 28,8 C 39 % 1014,6 hPa 0,0 l/m 0,0 km/h (0 Bft) O 84 0 min 0,000 mm 0,0 UV-I 0 W/m 13,4 C 28,8 C 0,0 km/h (0 Bft) 0,00 %
07.08.2015 20:37 28,4 C 39 % 1014,7 hPa 0,0 l/m 0,0 km/h (0 Bft) NO 47 0 min 0,000 mm 0,0 UV-I 0 W/m 13,1 C 28,4 C 0,0 km/h (0 Bft) 0,00 %
07.08.2015 20:42 28,0 C 41 % 1014,7 hPa 0,0 l/m 0,0 km/h (0 Bft) O-NO 73 0 min 0,000 mm 0,0 UV-I 0 W/m 13,5 C 28,0 C 0,0 km/h (0 Bft) 0,00 %
07.08.2015 20:47 27,6 C 42 % 1014,8 hPa 0,0 l/m 0,7 km/h (0 Bft) O 91 0 min 0,000 mm 0,0 UV-I 0 W/m 13,5 C 27,6 C 4,0 km/h (1 Bft) 0,00 %
07.08.2015 20:52 27,4 C 42 % 1014,7 hPa 0,0 l/m 0,0 km/h (0 Bft) O-SO 112 0 min 0,000 mm 0,0 UV-I 0 W/m 13,3 C 27,4 C 0,0 km/h (0 Bft) 0,00 %
07.08.2015 20:57 27,2 C 43 % 1014,9 hPa 0,0 l/m 0,0 km/h (0 Bft) NO 51 0 min 0,000 mm 0,0 UV-I 0 W/m 13,5 C 27,2 C 0,0 km/h (0 Bft) 0,00 %
07.08.2015 21:02 27,1 C 43 % 1014,9 hPa 0,0 l/m 0,0 km/h (0 Bft) NO 53 0 min 0,000 mm 0,0 UV-I 0 W/m 13,4 C 27,1 C 0,0 km/h (0 Bft) 0,00 %
07.08.2015 21:07 26,9 C 43 % 1015,0 hPa 0,0 l/m 0,0 km/h (0 Bft) NO 45 0 min 0,000 mm 0,0 UV-I 0 W/m 13,2 C 26,9 C 0,0 km/h (0 Bft) 0,00 %
07.08.2015 21:12 26,8 C 43 % 1015,0 hPa 0,0 l/m 0,0 km/h (0 Bft) N 354 0 min 0,000 mm 0,0 UV-I 0 W/m 13,2 C 26,8 C 0,0 km/h (0 Bft) 0,00 %
07.08.2015 21:17 26,8 C 43 % 1014,9 hPa 0,0 l/m 0,0 km/h (0 Bft) NO 47 0 min 0,000 mm 0,0 UV-I 0 W/m 13,2 C 26,8 C 0,0 km/h (0 Bft) 0,00 %
07.08.2015 21:22 26,7 C 43 % 1014,9 hPa 0,0 l/m 0,0 km/h (0 Bft) O 91 0 min 0,000 mm 0,0 UV-I 0 W/m 13,1 C 26,7 C 0,0 km/h (0 Bft) 0,00 %
07.08.2015 21:27 26,7 C 44 % 1014,9 hPa 0,0 l/m 0,0 km/h (0 Bft) O-NO 67 0 min 0,000 mm 0,0 UV-I 0 W/m 13,4 C 26,7 C 0,0 km/h (0 Bft) 0,00 %
07.08.2015 21:32 26,7 C 44 % 1015,3 hPa 0,0 l/m 0,0 km/h (0 Bft) NO 37 0 min 0,000 mm 0,0 UV-I 0 W/m 13,4 C 26,7 C 0,0 km/h (0 Bft) 0,00 %
07.08.2015 21:37 26,6 C 45 % 1015,1 hPa 0,0 l/m 0,4 km/h (0 Bft) O 80 0 min 0,000 mm 0,0 UV-I 0 W/m 13,7 C 26,6 C 4,0 km/h (1 Bft) 0,00 %
07.08.2015 21:42 26,4 C 45 % 1015,1 hPa 0,0 l/m 0,0 km/h (0 Bft) O 101 0 min 0,000 mm 0,0 UV-I 0 W/m 13,5 C 26,4 C 0,0 km/h (0 Bft) 0,00 %
07.08.2015 21:47 26,2 C 45 % 1015,1 hPa 0,0 l/m 0,0 km/h (0 Bft) O-NO 76 0 min 0,000 mm 0,0 UV-I 0 W/m 13,3 C 26,2 C 0,0 km/h (0 Bft) 0,00 %
07.08.2015 21:52 26,1 C 46 % 1015,1 hPa 0,0 l/m 0,0 km/h (0 Bft) O 80 0 min 0,000 mm 0,0 UV-I 0 W/m 13,6 C 26,1 C 0,0 km/h (0 Bft) 0,00 %
07.08.2015 21:57 25,9 C 47 % 1015,0 hPa 0,0 l/m 0,0 km/h (0 Bft) NO 56 0 min 0,000 mm 0,0 UV-I 0 W/m 13,7 C 25,9 C 0,0 km/h (0 Bft) 0,00 %
07.08.2015 22:02 25,7 C 49 % 1015,2 hPa 0,0 l/m 0,0 km/h (0 Bft) O 89 0 min 0,000 mm 0,0 UV-I 0 W/m 14,2 C 25,7 C 0,0 km/h (0 Bft) 0,00 %
07.08.2015 22:07 25,5 C 48 % 1015,4 hPa 0,0 l/m 0,0 km/h (0 Bft) O-NO 63 0 min 0,000 mm 0,0 UV-I 0 W/m 13,7 C 25,5 C 0,0 km/h (0 Bft) 0,00 %
07.08.2015 22:12 25,3 C 49 % 1015,2 hPa 0,0 l/m 0,0 km/h (0 Bft) O-NO 68 0 min 0,000 mm 0,0 UV-I 0 W/m 13,8 C 25,3 C 0,0 km/h (0 Bft) 0,00 %
07.08.2015 22:17 25,2 C 49 % 1015,2 hPa 0,0 l/m 0,0 km/h (0 Bft) O-NO 61 0 min 0,000 mm 0,0 UV-I 0 W/m 13,7 C 25,2 C 0,0 km/h (0 Bft) 0,00 %
07.08.2015 22:22 25,1 C 49 % 1015,2 hPa 0,0 l/m 0,0 km/h (0 Bft) O-NO 58 0 min 0,000 mm 0,0 UV-I 0 W/m 13,6 C 25,1 C 0,0 km/h (0 Bft) 0,00 %
07.08.2015 22:27 24,9 C 50 % 1015,2 hPa 0,0 l/m 0,0 km/h (0 Bft) O-NO 65 0 min 0,000 mm 0,0 UV-I 0 W/m 13,7 C 24,9 C 0,0 km/h (0 Bft) 0,00 %
07.08.2015 22:32 24,9 C 50 % 1015,2 hPa 0,0 l/m 0,0 km/h (0 Bft) NO 47 0 min 0,000 mm 0,0 UV-I 0 W/m 13,7 C 24,9 C 0,0 km/h (0 Bft) 0,00 %
07.08.2015 22:37 24,8 C 51 % 1015,2 hPa 0,0 l/m 0,0 km/h (0 Bft) NO 49 0 min 0,000 mm 0,0 UV-I 0 W/m 14,0 C 24,8 C 0,0 km/h (0 Bft) 0,00 %
07.08.2015 22:42 24,6 C 51 % 1015,2 hPa 0,0 l/m 0,0 km/h (0 Bft) O-NO 59 0 min 0,000 mm 0,0 UV-I 0 W/m 13,8 C 24,6 C 0,0 km/h (0 Bft) 0,00 %
07.08.2015 22:47 24,5 C 52 % 1015,2 hPa 0,0 l/m 0,0 km/h (0 Bft) NO 55 0 min 0,000 mm 0,0 UV-I 0 W/m 14,0 C 24,5 C 0,0 km/h (0 Bft) 0,00 %
07.08.2015 22:52 24,3 C 52 % 1015,2 hPa 0,0 l/m 0,0 km/h (0 Bft) O-NO 63 0 min 0,000 mm 0,0 UV-I 0 W/m 13,8 C 24,3 C 0,0 km/h (0 Bft) 0,00 %
07.08.2015 22:57 24,3 C 52 % 1015,1 hPa 0,0 l/m 0,0 km/h (0 Bft) O-NO 76 0 min 0,000 mm 0,0 UV-I 0 W/m 13,8 C 24,3 C 0,0 km/h (0 Bft) 0,00 %
07.08.2015 23:02 24,3 C 52 % 1015,2 hPa 0,0 l/m 0,0 km/h (0 Bft) O-NO 59 0 min 0,000 mm 0,0 UV-I 0 W/m 13,8 C 24,3 C 0,0 km/h (0 Bft) 0,00 %
07.08.2015 23:07 24,2 C 52 % 1015,2 hPa 0,0 l/m 0,0 km/h (0 Bft) O-NO 58 0 min 0,000 mm 0,0 UV-I 0 W/m 13,7 C 24,2 C 0,0 km/h (0 Bft) 0,00 %
07.08.2015 23:12 24,1 C 53 % 1015,1 hPa 0,0 l/m 0,0 km/h (0 Bft) NO 56 0 min 0,000 mm 0,0 UV-I 0 W/m 13,9 C 24,1 C 0,0 km/h (0 Bft) 0,00 %
07.08.2015 23:17 23,9 C 55 % 1015,2 hPa 0,0 l/m 0,0 km/h (0 Bft) O-NO 58 0 min 0,000 mm 0,0 UV-I 0 W/m 14,3 C 23,9 C 0,0 km/h (0 Bft) 0,00 %
07.08.2015 23:22 23,7 C 56 % 1015,3 hPa 0,0 l/m 0,0 km/h (0 Bft) O 81 0 min 0,000 mm 0,0 UV-I 0 W/m 14,4 C 23,7 C 0,0 km/h (0 Bft) 0,00 %
07.08.2015 23:27 23,5 C 56 % 1015,2 hPa 0,0 l/m 0,0 km/h (0 Bft) O 84 0 min 0,000 mm 0,0 UV-I 0 W/m 14,2 C 23,5 C 0,0 km/h (0 Bft) 0,00 %
07.08.2015 23:32 23,5 C 55 % 1015,0 hPa 0,0 l/m 0,4 km/h (0 Bft) O 87 0 min 0,000 mm 0,0 UV-I 0 W/m 13,9 C 23,5 C 4,0 km/h (1 Bft) 0,00 %
07.08.2015 23:37 23,5 C 55 % 1015,2 hPa 0,0 l/m 0,0 km/h (0 Bft) O-NO 73 0 min 0,000 mm 0,0 UV-I 0 W/m 13,9 C 23,5 C 0,0 km/h (0 Bft) 0,00 %
07.08.2015 23:42 23,6 C 56 % 1015,2 hPa 0,0 l/m 0,0 km/h (0 Bft) O-NO 76 0 min 0,000 mm 0,0 UV-I 0 W/m 14,3 C 23,6 C 0,0 km/h (0 Bft) 0,00 %
07.08.2015 23:47 23,6 C 56 % 1015,2 hPa 0,0 l/m 0,0 km/h (0 Bft) O-NO 78 0 min 0,000 mm 0,0 UV-I 0 W/m 14,3 C 23,6 C 0,0 km/h (0 Bft) 0,00 %
07.08.2015 23:52 23,5 C 57 % 1015,1 hPa 0,0 l/m 0,0 km/h (0 Bft) O-NO 61 0 min 0,000 mm 0,0 UV-I 0 W/m 14,5 C 23,5 C 0,0 km/h (0 Bft) 0,00 %
07.08.2015 23:57 23,3 C 57 % 1015,2 hPa 0,0 l/m 0,0 km/h (0 Bft) O-NO 57 0 min 0,000 mm 0,0 UV-I 0 W/m 14,3 C 23,3 C 0,0 km/h (0 Bft) 0,00 %
_ Min-Zeit 05:51 15:32 18:57 - 00:01 - - - - - - 17:47 05:51 00:01 00:01
Minimum _ 14,9 C 20 % 1014,1 hPa - 0,0 km/h (0 Bft) - - - - - - 9,3 C 14,9 C 0,0 km/h (0 Bft) 0,00 %
_ Max-Zeit 16:47 05:46 07:26 00:01 15:02 - - 07:52 00:01 12:27 14:12 11:12 16:47 11:37 00:01
Maximum _ 35,9 C 90 % 1017,0 hPa 0,0 l/m 11,9 km/h
SO (2 Bft)
- - 6 min 0,000 mm 5,0 UV-I 961 W/m 16,3 C 35,9 C 15,8 km/h
O-SO (3 Bft)
0,00 %
Durchschnitt _ 26,6 C 49 % 1015,8 hPa #0,0 l/m 1,2 km/h (1 Bft) O-SO - #14:21 h #0,000 mm 2,5 UV-I 597 W/m 13,2 C 26,6 C 2,4 km/h (1 Bft) 0,00 %